Regional Weather Roundup
Issued by NWS

Home | Current Version | Previous Version | Text Only | Print | Product List | Glossary On
Versions: 1 2 3 4 5 6 7 8 9 10 11 12 13 14 15 16 17 18 19 20 21 22 23 24 25 26 27 28 29 30 31 32 33 34 35 36 37 38 39 40 41 42 43 44 45 46 47 48 49 50
000
ASUS44 KOUN 260910
RWROK

WEATHER ROUNDUP FOR OKLAHOMA
NATIONAL WEATHER SERVICE NORMAN OK
300 AM CST MON JAN 26 2015

NOTE: "FAIR" INDICATES FEW OR NO CLOUDS BELOW 12,000 FEET WITH NO
      SIGNIFICANT WEATHER AND/OR OBSTRUCTIONS TO VISIBILITY.

OKZ001>007-009>012-014-015-017-261000-
NORTHWEST OKLAHOMA AND THE PANHANDLE

CITY           SKY/WX    TMP DP  RH WIND       PRES   REMARKS
GAGE           CLEAR     27  23  85 W6        30.16F WCI  20
ENID/WOODRING  PTCLDY    30  28  93 SW3       30.16F
$$

OKZ016-021>023-033>039-044-045-261000-
SOUTHWEST OKLAHOMA

CITY           SKY/WX    TMP DP  RH WIND       PRES   REMARKS
LAWTON/REGL    CLEAR     30  25  81 CALM      30.21S
LAWTON/FT SILL CLEAR     36  27  69 CALM      30.19S
FREDERICK      CLEAR     37  30  75 NW5       30.18S WCI  33
CLINTON        CLEAR     37  26  64 SW8       30.19S WCI  31
HOBART         CLEAR     32  26  78 W6        30.20S WCI  26
ALTUS AFB      CLEAR     35  28  77 W3        30.20F
$$

OKZ018>020-024>031-261000-
CENTRAL OKLAHOMA

CITY           SKY/WX    TMP DP  RH WIND       PRES   REMARKS
OKLAHOMA CITY  CLEAR     30  24  78 CALM      30.18S
OKC/WILEY POST CLEAR     31  26  82 SW3       30.20R
OKC/TINKER AFB CLEAR     36  28  73 W2        30.18S
STILLWATER     PTCLDY    27  23  85 CALM      30.17S
GUTHRIE        CLEAR     27  24  89 S3        30.19R
$$

OKZ008-013-054>072-261000-
NORTHEAST OKLAHOMA

CITY           SKY/WX    TMP DP  RH WIND       PRES   REMARKS
TULSA          CLEAR     33  30  88 W3        30.16S
TULSA/JONES    CLEAR     28  25  88 CALM      30.17S
PONCA CITY     PTCLDY    25  22  88 CALM      30.18R
BARTLESVILLE   CLEAR     23  21  92 CALM      30.18S
MUSKOGEE       CLEAR     31  27  85 W9        30.18R WCI  23
$$

OKZ032-040>043-046>053-073>077-261000-
SOUTH CENTRAL/SOUTHEAST OKLAHOMA

CITY           SKY/WX    TMP DP  RH WIND       PRES   REMARKS
ARDMORE/DWNTWN CLEAR     36  28  75 N3        30.20F
MCALESTER      PTCLDY    29  26  89 CALM      30.18S
$$



USA.gov is the U.S. government's official web portal to all federal, state and local government web resources and services.